Regional Weather Roundup
Issued by NWS

Home | Current Version | Previous Version | Text Only | Print | Product List | Glossary Off
Versions: 1 2 3 4 5 6 7 8 9 10 11 12 13 14 15 16 17 18 19 20 21 22 23 24 25 26 27 28 29 30 31 32 33 34 35 36 37 38 39 40 41 42 43 44 45 46 47 48 49 50

000
ASUS43 KOAX 290302
RWRNE

WEATHER ROUNDUP FOR NEBRASKA
NATIONAL WEATHER SERVICE OMAHA NE
1000 PM CDT SUN MAY 28 2017

NOTES: SATELLITE DATA IS BEING USED TO AUGMENT CLOUD COVER ABOVE
       12000 FEET.
       "FAIR" INDICATES FEW OR NO CLOUDS BELOW 12,000 FEET WITH NO
       SIGNIFICANT WEATHER AND/OR OBSTRUCTIONS TO VISIBILITY.

  * THESE STATIONS DO NOT REPORT WEATHER SUCH AS RAIN...SNOW OR FOG.

NEZ001>004-019>022-054>056-290400-
NEBRASKA PANHANDLE

CITY           SKY/WX    TMP DP  RH WIND       PRES   REMARKS
SCOTTSBLUFF    LGT RAIN  56  46  69 NE17      30.17R
ALLIANCE       LGT RAIN  52  47  83 NE12      30.15S
CHADRON        CLOUDY    52  48  86 W12       30.11R
GORDON         FAIR      52  47  83 W9        30.08R
KIMBALL        CLEAR     52  42  69 W6        30.20R
SIDNEY         CLEAR     47  43  86 SW5       30.17R
$$

NEZ057>060-069>072-079>082-290400-
SOUTHWEST NEBRASKA

CITY           SKY/WX    TMP DP  RH WIND       PRES   REMARKS
NORTH PLATTE   CLOUDY    57  53  86 W7        30.06S
IMPERIAL       MOCLDY    58  48  69 N8        30.10R
LEXINGTON      CLOUDY    62  51  67 NW12G18   30.05R
MCCOOK         PTCLDY    65  47  52 N21G33    30.06R
OGALLALA       MOCLDY    59  50  71 CALM      30.10S
$$

NEZ005>010-023>029-035>040-094-290400-
NORTH CENTRAL NEBRASKA

CITY           SKY/WX    TMP DP  RH WIND       PRES   REMARKS
VALENTINE      CLEAR     54  46  74 W7        30.01S
AINSWORTH      CLOUDY    55  49  80 W7        30.01S
BROKEN BOW     PTCLDY    63  44  50 N24G35    30.03R
O`NEILL        CLOUDY    63  44  48 W9        29.96R
ORD            PTCLDY    65  41  41 NW25G39   29.98R
THEDFORD       MOCLDY    56  47  72 W3        30.06F
$$

NEZ041-046>049-061>064-073>077-083>087-290400-
SOUTH CENTRAL NEBRASKA

CITY           SKY/WX    TMP DP  RH WIND       PRES   REMARKS
GRAND ISLAND   CLEAR     63  47  55 W5        29.97S
AURORA         CLEAR     62  41  46 CALM      29.96S
HASTINGS       PTCLDY    67  47  48 W5        29.99R
HEBRON         CLEAR     61  52  71 CALM      29.96S
HOLDREGE       CLOUDY    63  50  62 NW7       30.04R
KEARNEY *      MOCLDY    68  45  42 W9        30.00S
$$

NEZ011>018-030>034-042>045-290400-
NORTHEAST NEBRASKA

CITY           SKY/WX    TMP DP  RH WIND       PRES   REMARKS
NORFOLK        CLEAR     58  42  55 SW8       29.90S
ALBION         CLEAR     59  42  54 CALM      29.93F
BLAIR          CLEAR     69  39  33 NW5       29.90S
FREMONT        CLEAR     64  42  45 CALM      29.91S
TEKAMAH        CLEAR     63  41  44 W8        29.88S
WAYNE          CLEAR     65  41  41 SW8       29.89S
$$

NEZ050>053-065>068-078-088>093-290400-
SOUTHEAST NEBRASKA

CITY           SKY/WX    TMP DP  RH WIND       PRES   REMARKS
LINCOLN        CLOUDY    64  45  49 CALM      29.94R
OMAHA EPPLEY   PTCLDY    62  50  64 CALM      29.89S
BEATRICE       CLEAR     62  46  55 NW6       29.94S
FALLS CITY     CLEAR     64  45  49 NW5       29.91R
NEBRASKA CITY  PTCLDY    68  34  28 NW6       29.92S
PLATTSMOUTH    CLEAR     69  40  33 W5        29.91S
$$

NEZ044-045-051>053-067-290400-
OMAHA AREA

CITY           SKY/WX    TMP DP  RH WIND       PRES   REMARKS
OMAHA EPPLEY   PTCLDY    62  50  64 CALM      29.89S
BLAIR          CLEAR     69  39  33 NW5       29.90S
FREMONT        CLEAR     64  42  45 CALM      29.91S
MILLARD        CLEAR     64  48  55 CALM      29.90S
OFFUTT AFB     CLEAR     58  51  79 CALM      29.89S
PLATTSMOUTH    CLEAR     69  40  33 W5        29.91S
WAHOO          FAIR      64  42  44 SW7       29.91S
$$




USA.gov is the U.S. government's official web portal to all federal, state and local government web resources and services.